Tracking 27112 objects as of 27-Mar-2023
HD Live streaming from Space Station
objects crossing your sky now

SL-16 R/B DEB

Track SL-16 R/B DEB now!
10-day predictions


NORAD ID: 39717
Int'l Code: 1992-093KH
Perigee: 824.0 km
Apogee: 973.7 km
Inclination: 70.7 °
Period: 102.8 minutes
Semi major axis: 7269 km
RCS: Unknown
Launch date: December 25, 1992
Source: Commonwealth of Independent States (former USSR) (CIS)
Launch site: TYURATAM MISSILE AND SPACE COMPLEX (TTMTR)

Note: This is SATELLITE DEBRIS
Your satellite tracking list
Your tracking list is empty




NASA's NSSDC Master Catalog

Two Line Element Set (TLE):
1 39717U 92093KH  23085.61523874  .00001099  00000-0  73663-3 0  9991
2 39717  70.6889  73.4284 0102978 197.6722 162.0799 14.00598973457271
Source of the keplerian elements: AFSPC